Location: Tuebingen alte Sternwarte
(48.5376°N, 9.0555°E)
Time: 06:15:34
(UTC+02:00)

OTV 5 (USA 277) - Pass Details

Date: 24 June 2018
Orbit: 312 x 321 km, 54.5° (Epoch: 05 July)

Event Time Altitude Azimuth Distance (km) Brightness Sun altitude
Rises 00:06:30 0° 299° (WNW) 2,049 ? -15.9°
Reaches altitude 10° 00:08:36 10° 311° (NW) 1,220 ? -16.0°
Maximum altitude 00:11:02 29° 15° (NNE) 615 ? -16.1°
Drops below altitude 10° 00:13:29 10° 80° (E) 1,220 ? -16.2°
Enters shadow 00:13:33 10° 80° (E) 1,245 ? -16.2°
